This demonstration page uses our WeatherBlox Daily Observations layout. Learn more.

Left ArrowRight Arrow

53.62937, 11.41316

Hourly Observations for June 18, 2019

Temp ( °F °C ) Dew Point ( °F °C ) Humidity (%) Winds ( mph kmh ) Pressure ( in mb ) Visibility ( mi km ) Precip ( " mm )
6:50 am 06:50 Mostly Sunny 64 18 59 15 83 83 SE 6 9 30.03 1017 7 11 N/A
7:20 am 07:20 Mostly Sunny 66 19 59 15 78 78 SSE 5 7 30.03 1017 7 11 N/A
7:50 am 07:50 Mostly Sunny 68 20 59 15 73 73 SE 5 7 30.03 1017 7 11 N/A
8:20 am 08:20 Mostly Sunny 68 20 59 15 73 73 VRB 3 6 30.03 1017 7 11 N/A
8:50 am 08:50 Mostly Sunny 70 21 59 15 69 69 SSE 5 7 30.03 1017 7 11 N/A
9:20 am 09:20 Mostly Sunny 72 22 61 16 69 69 SE 6 9 30.03 1017 7 11 N/A
9:50 am 09:50 Mostly Sunny 73 23 61 16 65 65 SSE 6 9 30.03 1017 7 11 N/A
10:20 am 10:20 Mostly Sunny 75 24 61 16 61 61 SE 7 11 30.03 1017 7 11 N/A
10:50 am 10:50 Mostly Sunny 75 24 61 16 61 61 SE 8 13 30.00 1016 7 11 N/A
11:20 am 11:20 Mostly Sunny 79 26 61 16 54 54 SE 8 13 30.00 1016 7 11 N/A
11:50 am 11:50 Mostly Sunny 79 26 59 15 51 51 SE 8 13 30.00 1016 7 11 N/A
12:20 pm 12:20 Mostly Sunny 79 26 57 14 48 48 SE 10 17 30.00 1016 7 11 N/A
1:20 pm 13:20 Mostly Sunny 82 28 59 15 45 45 SSE 7 11 29.97 1015 7 11 N/A
1:50 pm 13:50 Mostly Sunny 82 28 59 15 45 45 SE 8 13 29.97 1015 7 11 N/A
2:20 pm 14:20 Mostly Sunny 82 28 59 15 45 45 SE 7 11 29.97 1015 7 11 N/A
2:50 pm 14:50 Mostly Sunny 84 29 59 15 43 43 SE 7 11 29.97 1015 7 11 N/A
3:20 pm 15:20 Mostly Sunny 82 28 59 15 45 45 SE 8 13 29.94 1014 7 11 N/A
3:50 pm 15:50 Mostly Sunny 82 28 57 14 42 42 SE 7 11 29.94 1014 7 11 N/A
4:20 pm 16:20 Mostly Sunny 82 28 54 12 37 37 SSE 9 15 29.94 1014 7 11 N/A
4:50 pm 16:50 Mostly Sunny 82 28 55 13 40 40 SSE 7 11 29.91 1013 7 11 N/A
5:20 pm 17:20 Mostly Sunny 82 28 57 14 42 42 SSE 7 11 29.91 1013 7 11 N/A
5:50 pm 17:50 Mostly Sunny 82 28 55 13 40 40 S 6 9 29.91 1013 7 11 N/A
6:20 pm 18:20 Mostly Sunny 82 28 57 14 42 42 SSE 5 7 29.88 1012 7 11 N/A
6:50 pm 18:50 Mostly Sunny 82 28 57 14 42 42 S 5 7 29.88 1012 7 11 N/A
7:20 pm 19:20 Mostly Sunny 81 27 57 14 45 45 S 3 6 29.88 1012 7 11 N/A
7:50 pm 19:50 Mostly Sunny 81 27 59 15 48 48 VRB 2 4 29.88 1012 7 11 N/A
8:20 pm 20:20 Mostly Sunny 79 26 59 15 51 51 SE 3 6 29.88 1012 7 11 N/A
8:50 pm 20:50 Mostly Sunny 75 24 61 16 61 61 NW 7 11 29.88 1012 7 11 N/A

Powered by AerisWeather